Location: Innerarity Island Observatory
(30.3139°N, 87.4867°W)
Time: 02:29:16
(UTC-05:00)

OPAL - Visible Passes

Search period start: 23 August 2014 00:00
Search period end: 02 September 2014 00:00
Orbit: 744 x 796 km, 100.2° (Epoch: 22 August)

Date Brightness Start Highest point End Pass type
(mag) Time Alt. Az. Time Alt. Az. Time Alt. Az.
23 Aug 8.1 04:09:09 10° SSE 04:13:59 54° ENE 04:18:54 10° N visible
23 Aug 9.2 05:51:03 10° WSW 05:53:07 12° W 05:55:11 10° WNW visible
24 Aug 9.7 03:35:11 10° ESE 03:39:02 23° ENE 03:42:56 10° NNE visible
24 Aug 8.2 05:13:17 10° SSW 05:17:41 31° W 05:22:09 10° NW visible
25 Aug 7.3 04:37:26 10° S 04:42:25 78° WSW 04:47:29 10° NNW visible
26 Aug 8.6 04:02:37 10° SE 04:07:19 43° ENE 04:12:06 10° N visible
26 Aug 8.9 05:43:18 10° SW 05:46:19 16° W 05:49:23 10° WNW visible
27 Aug 10.0 03:29:00 10° ESE 03:32:25 19° ENE 03:35:51 10° NNE visible
27 Aug 7.9 05:06:17 10° S 05:10:56 39° W 05:15:40 10° NNW visible
28 Aug 7.4 04:30:42 10° SSE 04:35:42 84° ENE 04:40:49 10° NNW visible
29 Aug 9.0 03:56:09 10° SE 04:00:40 35° ENE 04:05:14 10° N visible
29 Aug 8.7 05:35:53 10° SW 05:39:33 20° W 05:43:16 10° NW visible
30 Aug 10.3 03:22:59 10° E 03:25:48 15° ENE 03:28:38 10° NNE visible
30 Aug 7.6 04:59:21 10° S 05:04:12 50° WSW 05:09:08 10° NNW visible
31 Aug 7.8 04:24:02 10° SSE 04:29:01 67° ENE 04:34:05 10° N visible
01 Sep 9.4 03:49:46 10° SE 03:54:01 28° ENE 03:58:20 10° N visible
01 Sep 8.4 05:28:39 10° SSW 05:32:47 26° W 05:36:58 10° NW visible
